Flag for U.S.A. Weather past 2 weeks in Angels Camp, California, U.S.A.

Now
73 °F

Clear.


Feels Like: 76 °F
Forecast: 43 / 83 °F
Wind: 9 mph from Northwest

Location: Modesto City-County-Sham Field

Current Time: Apr 17, 2015 at 9:33:49 PM

Latest Report: Apr 17, 2015 at 8:53 PM


Visibility: 10 mi

Pressure: 29.97 "Hg

Humidity: 23%

Dew point: 33 °F

Location of Angels CampLocation

Historic Weather in Angels Camp — Graph

°F

Angels Camp temperature yesterday

Maximum temperature yesterday: 80 °F (at 3:53 PM)
Minimum temperature yesterday: 47 °F (at 6:53 AM)
Average temperature yesterday: 64 °F

Past Weeks' High & Low Weather Summary

 TemperatureHumidityPressure
High85 °F (Apr 17, 3:53 PM)89% (Apr 13, 5:53 AM)30.31 "Hg (Apr 13, 5:53 AM)
Low41 °F (Apr 6, 6:53 AM)10% (Apr 14, 3:53 PM)29.82 "Hg (Apr 7, 4:53 AM)
Average60 °F46%30.02 "Hg
* Reported Apr 2 7:53 PM — Apr 17 7:53 PM, Angels Camp, Weather by CustomWeather, © 2015

Note: Actual official high and low records may vary slightly from our data, if they occured in-between our weather recording intervals... More about our weather records

Advertising

Angels Camp weather history for previous 24 hours

 ConditionsComfort  
Time TempWeatherWind HumidityBarometerVisibility
7:53 PM
Fri, Apr 17
77 °FSunny.6 mph22%29.96 "Hg10 mi
6:53 PM82 °FSunny.7 mph16%29.95 "Hg10 mi
5:53 PM84 °FSunny.9 mph12%29.96 "Hg10 mi
4:53 PM85 °FSunny.8 mph13%29.96 "Hg10 mi
3:53 PM85 °FSunny.8 mph14%29.98 "Hg10 mi
2:53 PM83 °FSunny.3 mph13%30.01 "Hg10 mi
1:53 PM82 °FSunny.6 mph15%30.03 "Hg10 mi
11:53 AM76 °FSunny.6 mph23%30.07 "Hg10 mi
10:53 AM72 °FSunny.6 mph30%30.08 "Hg10 mi
9:53 AM67 °FSunny.5 mph37%30.08 "Hg10 mi
8:53 AM61 °FSunny.6 mph50%30.08 "Hg10 mi
7:53 AM55 °FSunny.3 mph64%30.07 "Hg10 mi
6:53 AM49 °FClear.No wind77%30.06 "Hg10 mi
5:53 AM47 °FClear.5 mph80%30.04 "Hg10 mi
4:53 AM51 °FClear.No wind69%30.04 "Hg10 mi
3:53 AM52 °FClear.No wind66%30.03 "Hg10 mi
2:53 AM50 °FClear.6 mph71%30.02 "Hg10 mi
1:53 AM54 °FClear.5 mph62%30.03 "Hg10 mi
12:53 AM53 °FClear.5 mph66%30.03 "Hg10 mi
11:53 PM
Thu, Apr 16
57 °FClear.No wind58%30.02 "Hg10 mi
10:53 PM62 °FClear.5 mph39%30.01 "Hg10 mi
9:53 PM62 °FClear.No wind37%30.00 "Hg10 mi
Weather by CustomWeather, © 2015

See weather overviewHow to use our weather pages